owner,sensor,date,latitude,longitude,vertical_datum,mass_concentration_of_oxygen_in_sea_water,qcFlag 
DISL,ioos:station:DISL:CATA:1,2013-09-01T00:00:00Z,30.3085,-88.1395,2.322,6.0,1111122 
DISL,ioos:station:DISL:CATA:1,2013-09-01T00:30:00Z,30.3085,-88.1395,2.32,5.9,1111122 
DISL,ioos:station:DISL:CATA:1,2013-09-01T01:00:00Z,30.3085,-88.1395,2.325,4.96,1111122 
DISL,ioos:station:DISL:CATA:1,2013-09-01T01:30:00Z,30.3085,-88.1395,2.317,5.19,1111122 
DISL,ioos:station:DISL:CATA:1,2013-09-01T02:00:00Z,30.3085,-88.1395,2.329,5.89,1111122 
DISL,ioos:station:DISL:CATA:1,2013-09-01T02:30:00Z,30.3085,-88.1395,2.349,6.33,1111122 
DISL,ioos:station:DISL:CATA:1,2013-09-01T03:00:00Z,30.3085,-88.1395,2.356,6.52,1111122 
DISL,ioos:station:DISL:CATA:1,2013-09-01T03:30:00Z,30.3085,-88.1395,2.387,6.64,1111122 
DISL,ioos:station:DISL:CATA:1,2013-09-01T04:00:00Z,30.3085,-88.1395,2.411,6.53,1111122 
DISL,ioos:station:DISL:CATA:1,2013-09-01T04:30:00Z,30.3085,-88.1395,2.425,6.48,1111122 
DISL,ioos:station:DISL:CATA:1,2013-09-01T05:00:00Z,30.3085,-88.1395,2.438,6.55,1111122 
DISL,ioos:station:DISL:CATA:1,2013-09-01T05:30:00Z,30.3085,-88.1395,2.457,6.69,1111122 
DISL,ioos:station:DISL:CATA:1,2013-09-01T06:00:00Z,30.3085,-88.1395,2.465,6.47,1111122 
DISL,ioos:station:DISL:CATA:1,2013-09-01T06:30:00Z,30.3085,-88.1395,2.459,6.33,1111122 
DISL,ioos:station:DISL:CATA:1,2013-09-01T07:00:00Z,30.3085,-88.1395,2.482,6.31,1111122 
DISL,ioos:station:DISL:CATA:1,2013-09-01T07:30:00Z,30.3085,-88.1395,2.504,6.26,1111122 
DISL,ioos:station:DISL:CATA:1,2013-09-01T08:00:00Z,30.3085,-88.1395,2.516,6.22,1111122 
DISL,ioos:station:DISL:CATA:1,2013-09-01T08:30:00Z,30.3085,-88.1395,2.539,6.14,1111122 
DISL,ioos:station:DISL:CATA:1,2013-09-01T09:00:00Z,30.3085,-88.1395,2.561,6.06,1111122 
DISL,ioos:station:DISL:CATA:1,2013-09-01T09:30:00Z,30.3085,-88.1395,2.574,5.96,1111122 
DISL,ioos:station:DISL:CATA:1,2013-09-01T10:00:00Z,30.3085,-88.1395,2.586,5.98,1111122 
DISL,ioos:station:DISL:CATA:1,2013-09-01T10:30:00Z,30.3085,-88.1395,2.586,5.93,1111122 
DISL,ioos:station:DISL:CATA:1,2013-09-01T11:00:00Z,30.3085,-88.1395,2.592,5.89,1111122 
DISL,ioos:station:DISL:CATA:1,2013-09-01T11:30:00Z,30.3085,-88.1395,2.604,5.89,1111122 
DISL,ioos:station:DISL:CATA:1,2013-09-01T12:00:00Z,30.3085,-88.1395,2.611,5.96,1111122 
DISL,ioos:station:DISL:CATA:1,2013-09-01T12:30:00Z,30.3085,-88.1395,2.62,6.02,1111122 
DISL,ioos:station:DISL:CATA:1,2013-09-01T13:00:00Z,30.3085,-88.1395,2.627,6.14,1111122 
DISL,ioos:station:DISL:CATA:1,2013-09-01T13:30:00Z,30.3085,-88.1395,2.629,6.24,1111122 
DISL,ioos:station:DISL:CATA:1,2013-09-01T14:00:00Z,30.3085,-88.1395,2.625,6.4,1111122 
DISL,ioos:station:DISL:CATA:1,2013-09-01T14:30:00Z,30.3085,-88.1395,2.614,6.55,1111122 
DISL,ioos:station:DISL:CATA:1,2013-09-01T15:00:00Z,30.3085,-88.1395,2.607,6.59,1111122 
DISL,ioos:station:DISL:CATA:1,2013-09-01T15:30:00Z,30.3085,-88.1395,2.593,6.6,1111122 
DISL,ioos:station:DISL:CATA:1,2013-09-01T16:00:00Z,30.3085,-88.1395,2.573,6.93,1111122 
DISL,ioos:station:DISL:CATA:1,2013-09-01T16:30:00Z,30.3085,-88.1395,2.56,6.52,1111122 
DISL,ioos:station:DISL:CATA:1,2013-09-01T17:00:00Z,30.3085,-88.1395,2.537,6.13,1111122 
DISL,ioos:station:DISL:CATA:1,2013-09-01T17:30:00Z,30.3085,-88.1395,2.516,5.86,1111122 
DISL,ioos:station:DISL:CATA:1,2013-09-01T18:00:00Z,30.3085,-88.1395,2.468,5.68,1111122 
DISL,ioos:station:DISL:CATA:1,2013-09-01T18:30:00Z,30.3085,-88.1395,2.445,5.36,1111122 
DISL,ioos:station:DISL:CATA:1,2013-09-01T19:00:00Z,30.3085,-88.1395,2.422,5.89,1111122 
DISL,ioos:station:DISL:CATA:1,2013-09-01T19:30:00Z,30.3085,-88.1395,2.395,5.79,1111122 
DISL,ioos:station:DISL:CATA:1,2013-09-01T20:00:00Z,30.3085,-88.1395,2.373,5.14,1111122 
DISL,ioos:station:DISL:CATA:1,2013-09-01T20:30:00Z,30.3085,-88.1395,2.351,4.26,1111122 
DISL,ioos:station:DISL:CATA:1,2013-09-01T21:00:00Z,30.3085,-88.1395,2.337,3.68,1111122 
DISL,ioos:station:DISL:CATA:1,2013-09-01T21:30:00Z,30.3085,-88.1395,2.307,4.06,1111122 
DISL,ioos:station:DISL:CATA:1,2013-09-01T22:00:00Z,30.3085,-88.1395,2.303,4.68,1111122 
DISL,ioos:station:DISL:CATA:1,2013-09-01T22:30:00Z,30.3085,-88.1395,2.305,5.19,1111122 
DISL,ioos:station:DISL:CATA:1,2013-09-01T23:00:00Z,30.3085,-88.1395,2.309,5.66,1111122 
DISL,ioos:station:DISL:CATA:1,2013-09-01T23:30:00Z,30.3085,-88.1395,2.3,5.92,1111122 
DISL,ioos:station:DISL:CATA:1,2013-09-02T00:00:00Z,30.3085,-88.1395,2.297,4.91,1111122 
DISL,ioos:station:DISL:CATA:1,2013-09-02T00:30:00Z,30.3085,-88.1395,2.285,5.46,1111122 
DISL,ioos:station:DISL:CATA:1,2013-09-02T01:00:00Z,30.3085,-88.1395,2.283,6.22,1111122 
DISL,ioos:station:DISL:CATA:1,2013-09-02T01:30:00Z,30.3085,-88.1395,2.283,5.86,1111122 
DISL,ioos:station:DISL:CATA:1,2013-09-02T02:00:00Z,30.3085,-88.1395,2.305,5.64,1111122 
DISL,ioos:station:DISL:CATA:1,2013-09-02T02:30:00Z,30.3085,-88.1395,2.31,5.86,1111122 
DISL,ioos:station:DISL:CATA:1,2013-09-02T03:00:00Z,30.3085,-88.1395,2.334,5.66,1111122 
DISL,ioos:station:DISL:CATA:1,2013-09-02T03:30:00Z,30.3085,-88.1395,2.372,6.29,1111122 
DISL,ioos:station:DISL:CATA:1,2013-09-02T04:00:00Z,30.3085,-88.1395,2.376,6.2,1111122 
DISL,ioos:station:DISL:CATA:1,2013-09-02T04:30:00Z,30.3085,-88.1395,2.39,6.94,1111122 
DISL,ioos:station:DISL:CATA:1,2013-09-02T05:00:00Z,30.3085,-88.1395,2.403,6.78,1111122 
DISL,ioos:station:DISL:CATA:1,2013-09-02T05:30:00Z,30.3085,-88.1395,2.428,6.51,1111122 
DISL,ioos:station:DISL:CATA:1,2013-09-02T06:00:00Z,30.3085,-88.1395,2.431,5.95,1111122 
DISL,ioos:station:DISL:CATA:1,2013-09-02T06:30:00Z,30.3085,-88.1395,2.425,6.12,1111122 
DISL,ioos:station:DISL:CATA:1,2013-09-02T07:00:00Z,30.3085,-88.1395,2.44,6.24,1111122 
DISL,ioos:station:DISL:CATA:1,2013-09-02T07:30:00Z,30.3085,-88.1395,2.451,6.07,1111122 
DISL,ioos:station:DISL:CATA:1,2013-09-02T08:00:00Z,30.3085,-88.1395,2.467,6.11,1111122 
DISL,ioos:station:DISL:CATA:1,2013-09-02T08:30:00Z,30.3085,-88.1395,2.467,6.09,1111122 
DISL,ioos:station:DISL:CATA:1,2013-09-02T09:00:00Z,30.3085,-88.1395,2.49,6.08,1111122 
DISL,ioos:station:DISL:CATA:1,2013-09-02T09:30:00Z,30.3085,-88.1395,2.52,6.12,1111122 
DISL,ioos:station:DISL:CATA:1,2013-09-02T10:00:00Z,30.3085,-88.1395,2.528,6.1,1111122 
DISL,ioos:station:DISL:CATA:1,2013-09-02T10:30:00Z,30.3085,-88.1395,2.552,5.96,1111122 
DISL,ioos:station:DISL:CATA:1,2013-09-02T11:00:00Z,30.3085,-88.1395,2.568,6.11,1111122 
DISL,ioos:station:DISL:CATA:1,2013-09-02T11:30:00Z,30.3085,-88.1395,2.585,6.22,1111122 
DISL,ioos:station:DISL:CATA:1,2013-09-02T12:00:00Z,30.3085,-88.1395,2.591,6.14,1111122 
DISL,ioos:station:DISL:CATA:1,2013-09-02T12:30:00Z,30.3085,-88.1395,2.591,6.12,1111122 
DISL,ioos:station:DISL:CATA:1,2013-09-02T13:00:00Z,30.3085,-88.1395,2.593,6.12,1111122 
DISL,ioos:station:DISL:CATA:1,2013-09-02T13:30:00Z,30.3085,-88.1395,2.589,6.12,1111122 
DISL,ioos:station:DISL:CATA:1,2013-09-02T14:00:00Z,30.3085,-88.1395,2.591,6.22,1111122 
DISL,ioos:station:DISL:CATA:1,2013-09-02T14:30:00Z,30.3085,-88.1395,2.584,6.23,1111122 
DISL,ioos:station:DISL:CATA:1,2013-09-02T15:00:00Z,30.3085,-88.1395,2.58,6.34,1111122 
DISL,ioos:station:DISL:CATA:1,2013-09-02T15:30:00Z,30.3085,-88.1395,2.567,5.9,1111122 
DISL,ioos:station:DISL:CATA:1,2013-09-02T16:00:00Z,30.3085,-88.1395,2.549,5.33,1111122 
DISL,ioos:station:DISL:CATA:1,2013-09-02T16:30:00Z,30.3085,-88.1395,2.51,5.02,1111122 
DISL,ioos:station:DISL:CATA:1,2013-09-02T17:00:00Z,30.3085,-88.1395,2.501,4.43,1111122 
DISL,ioos:station:DISL:CATA:1,2013-09-02T17:30:00Z,30.3085,-88.1395,2.474,4.57,1111122 
DISL,ioos:station:DISL:CATA:1,2013-09-02T18:00:00Z,30.3085,-88.1395,2.449,5.14,1111122 
DISL,ioos:station:DISL:CATA:1,2013-09-02T18:30:00Z,30.3085,-88.1395,2.429,5.59,1111122 
DISL,ioos:station:DISL:CATA:1,2013-09-02T19:00:00Z,30.3085,-88.1395,2.405,5.73,1111122 
DISL,ioos:station:DISL:CATA:1,2013-09-02T19:30:00Z,30.3085,-88.1395,2.377,5.11,1111122 
DISL,ioos:station:DISL:CATA:1,2013-09-02T20:00:00Z,30.3085,-88.1395,2.358,4.96,1111122 
DISL,ioos:station:DISL:CATA:1,2013-09-02T20:30:00Z,30.3085,-88.1395,2.341,5.09,1111122 
DISL,ioos:station:DISL:CATA:1,2013-09-02T21:00:00Z,30.3085,-88.1395,2.331,6.09,1111122 
DISL,ioos:station:DISL:CATA:1,2013-09-02T21:30:00Z,30.3085,-88.1395,2.321,6.36,1111122 
DISL,ioos:station:DISL:CATA:1,2013-09-02T22:00:00Z,30.3085,-88.1395,2.314,6.78,1111122 
DISL,ioos:station:DISL:CATA:1,2013-09-02T22:30:00Z,30.3085,-88.1395,2.317,6.05,1111122 
DISL,ioos:station:DISL:CATA:1,2013-09-02T23:00:00Z,30.3085,-88.1395,2.293,4.71,1111122 
DISL,ioos:station:DISL:CATA:1,2013-09-02T23:30:00Z,30.3085,-88.1395,2.279,3.5,1111122 
DISL,ioos:station:DISL:CATA:1,2013-09-03T00:00:00Z,30.3085,-88.1395,2.288,4.61,1111122 
DISL,ioos:station:DISL:CATA:1,2013-09-03T00:30:00Z,30.3085,-88.1395,2.297,4.92,1111122 
DISL,ioos:station:DISL:CATA:1,2013-09-03T01:00:00Z,30.3085,-88.1395,2.287,5.59,1111122 
DISL,ioos:station:DISL:CATA:1,2013-09-03T01:30:00Z,30.3085,-88.1395,2.287,6.27,1111122 
DISL,ioos:station:DISL:CATA:1,2013-09-03T02:00:00Z,30.3085,-88.1395,2.307,6.15,1111122 
DISL,ioos:station:DISL:CATA:1,2013-09-03T02:30:00Z,30.3085,-88.1395,2.324,5.68,1111122 
DISL,ioos:station:DISL:CATA:1,2013-09-03T03:00:00Z,30.3085,-88.1395,2.346,5.5,1111122 
DISL,ioos:station:DISL:CATA:1,2013-09-03T03:30:00Z,30.3085,-88.1395,2.372,6.01,1111122 
DISL,ioos:station:DISL:CATA:1,2013-09-03T04:00:00Z,30.3085,-88.1395,2.394,6.45,1111122 
DISL,ioos:station:DISL:CATA:1,2013-09-03T04:30:00Z,30.3085,-88.1395,2.446,6.78,1111122 
DISL,ioos:station:DISL:CATA:1,2013-09-03T05:00:00Z,30.3085,-88.1395,2.453,6.52,1111122 
DISL,ioos:station:DISL:CATA:1,2013-09-03T05:30:00Z,30.3085,-88.1395,2.441,6.7,1111122 
DISL,ioos:station:DISL:CATA:1,2013-09-03T06:00:00Z,30.3085,-88.1395,2.447,6.48,1111122 
DISL,ioos:station:DISL:CATA:1,2013-09-03T06:30:00Z,30.3085,-88.1395,2.462,6.36,1111122 
DISL,ioos:station:DISL:CATA:1,2013-09-03T07:00:00Z,30.3085,-88.1395,2.467,6.2,1111122 
DISL,ioos:station:DISL:CATA:1,2013-09-03T07:30:00Z,30.3085,-88.1395,2.454,6.17,1111122 
DISL,ioos:station:DISL:CATA:1,2013-09-03T08:00:00Z,30.3085,-88.1395,2.466,5.89,1111122 
DISL,ioos:station:DISL:CATA:1,2013-09-03T08:30:00Z,30.3085,-88.1395,2.474,6.04,1111122 
DISL,ioos:station:DISL:CATA:1,2013-09-03T09:00:00Z,30.3085,-88.1395,2.476,6.09,1111122 
DISL,ioos:station:DISL:CATA:1,2013-09-03T09:30:00Z,30.3085,-88.1395,2.486,6.08,1111122 
DISL,ioos:station:DISL:CATA:1,2013-09-03T10:00:00Z,30.3085,-88.1395,2.496,5.98,1111122 
DISL,ioos:station:DISL:CATA:1,2013-09-03T10:30:00Z,30.3085,-88.1395,2.525,5.87,1111122 
DISL,ioos:station:DISL:CATA:1,2013-09-03T11:00:00Z,30.3085,-88.1395,2.519,5.83,1111122 
DISL,ioos:station:DISL:CATA:1,2013-09-03T11:30:00Z,30.3085,-88.1395,2.539,5.96,1111122 
DISL,ioos:station:DISL:CATA:1,2013-09-03T12:00:00Z,30.3085,-88.1395,2.547,5.95,1111122 
DISL,ioos:station:DISL:CATA:1,2013-09-03T12:30:00Z,30.3085,-88.1395,2.555,5.99,1111122 
DISL,ioos:station:DISL:CATA:1,2013-09-03T13:00:00Z,30.3085,-88.1395,2.559,6.02,1111122 
DISL,ioos:station:DISL:CATA:1,2013-09-03T13:30:00Z,30.3085,-88.1395,2.563,5.98,1111122 
DISL,ioos:station:DISL:CATA:1,2013-09-03T14:00:00Z,30.3085,-88.1395,2.557,5.94,1111122 
DISL,ioos:station:DISL:CATA:1,2013-09-03T14:30:00Z,30.3085,-88.1395,2.561,5.99,1111122 
DISL,ioos:station:DISL:CATA:1,2013-09-03T15:00:00Z,30.3085,-88.1395,2.574,6.03,1111122 
DISL,ioos:station:DISL:CATA:1,2013-09-03T15:30:00Z,30.3085,-88.1395,2.569,6.24,1111122 
DISL,ioos:station:DISL:CATA:1,2013-09-03T16:00:00Z,30.3085,-88.1395,2.57,6.24,1111122 
DISL,ioos:station:DISL:CATA:1,2013-09-03T16:30:00Z,30.3085,-88.1395,2.581,6.37,1111122 
DISL,ioos:station:DISL:CATA:1,2013-09-03T17:00:00Z,30.3085,-88.1395,2.566,6.42,1111122 
DISL,ioos:station:DISL:CATA:1,2013-09-03T17:30:00Z,30.3085,-88.1395,2.558,6.53,1111122 
DISL,ioos:station:DISL:CATA:1,2013-09-03T18:00:00Z,30.3085,-88.1395,2.53,6.7,1111122 
DISL,ioos:station:DISL:CATA:1,2013-09-03T18:30:00Z,30.3085,-88.1395,2.504,5.95,1111122 
DISL,ioos:station:DISL:CATA:1,2013-09-03T19:00:00Z,30.3085,-88.1395,2.493,4.99,1111122 
DISL,ioos:station:DISL:CATA:1,2013-09-03T19:30:00Z,30.3085,-88.1395,2.465,5.98,1111122 
DISL,ioos:station:DISL:CATA:1,2013-09-03T20:00:00Z,30.3085,-88.1395,2.437,6.22,1111122 
DISL,ioos:station:DISL:CATA:1,2013-09-03T20:30:00Z,30.3085,-88.1395,2.408,6.34,1111122 
DISL,ioos:station:DISL:CATA:1,2013-09-03T21:00:00Z,30.3085,-88.1395,2.381,5.74,1111122 
DISL,ioos:station:DISL:CATA:1,2013-09-03T21:30:00Z,30.3085,-88.1395,2.364,5.24,1111122 
DISL,ioos:station:DISL:CATA:1,2013-09-03T22:00:00Z,30.3085,-88.1395,2.351,5.09,1111122 
DISL,ioos:station:DISL:CATA:1,2013-09-03T22:30:00Z,30.3085,-88.1395,2.342,5.15,1111122 
DISL,ioos:station:DISL:CATA:1,2013-09-03T23:00:00Z,30.3085,-88.1395,2.36,5.61,1111122 
DISL,ioos:station:DISL:CATA:1,2013-09-03T23:30:00Z,30.3085,-88.1395,2.36,5.61,1111122 
DISL,ioos:station:DISL:CATA:1,2013-09-04T00:00:00Z,30.3085,-88.1395,2.306,6.09,1111122 
DISL,ioos:station:DISL:CATA:1,2013-09-04T00:30:00Z,30.3085,-88.1395,2.281,6.23,1111122 
DISL,ioos:station:DISL:CATA:1,2013-09-04T01:00:00Z,30.3085,-88.1395,2.24,5.99,1111122 
DISL,ioos:station:DISL:CATA:1,2013-09-04T01:30:00Z,30.3085,-88.1395,2.259,5.58,1111122 
DISL,ioos:station:DISL:CATA:1,2013-09-04T02:00:00Z,30.3085,-88.1395,2.278,5.03,1111122 
DISL,ioos:station:DISL:CATA:1,2013-09-04T02:30:00Z,30.3085,-88.1395,2.259,3.45,1111122 
DISL,ioos:station:DISL:CATA:1,2013-09-04T03:00:00Z,30.3085,-88.1395,2.225,3.93,1111122 
DISL,ioos:station:DISL:CATA:1,2013-09-04T03:30:00Z,30.3085,-88.1395,2.228,4.19,1111122 
DISL,ioos:station:DISL:CATA:1,2013-09-04T04:00:00Z,30.3085,-88.1395,2.291,4.01,1111122 
DISL,ioos:station:DISL:CATA:1,2013-09-04T04:30:00Z,30.3085,-88.1395,2.346,4.15,1111122 
DISL,ioos:station:DISL:CATA:1,2013-09-04T05:00:00Z,30.3085,-88.1395,2.37,4.59,1111122 
DISL,ioos:station:DISL:CATA:1,2013-09-04T05:30:00Z,30.3085,-88.1395,2.369,4.81,1111122 
DISL,ioos:station:DISL:CATA:1,2013-09-04T06:00:00Z,30.3085,-88.1395,2.36,5.06,1111122 
DISL,ioos:station:DISL:CATA:1,2013-09-04T06:30:00Z,30.3085,-88.1395,2.364,5.26,1111122 
DISL,ioos:station:DISL:CATA:1,2013-09-04T07:00:00Z,30.3085,-88.1395,2.35,5.23,1111122 
DISL,ioos:station:DISL:CATA:1,2013-09-04T07:30:00Z,30.3085,-88.1395,2.379,5.5,1111122 
DISL,ioos:station:DISL:CATA:1,2013-09-04T08:00:00Z,30.3085,-88.1395,2.396,5.34,1111122 
DISL,ioos:station:DISL:CATA:1,2013-09-04T08:30:00Z,30.3085,-88.1395,2.381,3.38,1111122 
DISL,ioos:station:DISL:CATA:1,2013-09-04T09:00:00Z,30.3085,-88.1395,2.387,4.99,1111122 
DISL,ioos:station:DISL:CATA:1,2013-09-04T09:30:00Z,30.3085,-88.1395,2.373,4.86,1111122 
DISL,ioos:station:DISL:CATA:1,2013-09-04T10:00:00Z,30.3085,-88.1395,2.384,4.23,1111122 
DISL,ioos:station:DISL:CATA:1,2013-09-04T10:30:00Z,30.3085,-88.1395,2.395,3.97,1111122 
DISL,ioos:station:DISL:CATA:1,2013-09-04T11:00:00Z,30.3085,-88.1395,2.403,3.6,1111122 
DISL,ioos:station:DISL:CATA:1,2013-09-04T11:30:00Z,30.3085,-88.1395,2.413,3.32,1111122 
DISL,ioos:station:DISL:CATA:1,2013-09-04T12:00:00Z,30.3085,-88.1395,2.435,2.5,1111122 
DISL,ioos:station:DISL:CATA:1,2013-09-04T12:30:00Z,30.3085,-88.1395,2.455,3.39,1111122 
DISL,ioos:station:DISL:CATA:1,2013-09-04T13:00:00Z,30.3085,-88.1395,2.493,4.0,1111122 
DISL,ioos:station:DISL:CATA:1,2013-09-04T13:30:00Z,30.3085,-88.1395,2.525,4.36,1111122 
DISL,ioos:station:DISL:CATA:1,2013-09-04T14:00:00Z,30.3085,-88.1395,2.55,4.53,1111122 
DISL,ioos:station:DISL:CATA:1,2013-09-04T14:30:00Z,30.3085,-88.1395,2.551,4.76,1111122 
DISL,ioos:station:DISL:CATA:1,2013-09-04T15:00:00Z,30.3085,-88.1395,2.558,5.03,1111122 
DISL,ioos:station:DISL:CATA:1,2013-09-04T15:30:00Z,30.3085,-88.1395,2.559,5.26,1111122 
DISL,ioos:station:DISL:CATA:1,2013-09-04T16:00:00Z,30.3085,-88.1395,2.565,5.52,1111122 
DISL,ioos:station:DISL:CATA:1,2013-09-04T16:30:00Z,30.3085,-88.1395,2.568,5.57,1111122 
DISL,ioos:station:DISL:CATA:1,2013-09-04T17:00:00Z,30.3085,-88.1395,2.561,5.14,1111122 
DISL,ioos:station:DISL:CATA:1,2013-09-04T17:30:00Z,30.3085,-88.1395,2.548,3.89,1111122 
DISL,ioos:station:DISL:CATA:1,2013-09-04T18:00:00Z,30.3085,-88.1395,2.516,3.39,1111122 
DISL,ioos:station:DISL:CATA:1,2013-09-04T18:30:00Z,30.3085,-88.1395,2.494,5.08,1111122 
DISL,ioos:station:DISL:CATA:1,2013-09-04T19:00:00Z,30.3085,-88.1395,2.481,5.13,1111122 
DISL,ioos:station:DISL:CATA:1,2013-09-04T19:30:00Z,30.3085,-88.1395,2.466,5.7,1111122 
DISL,ioos:station:DISL:CATA:1,2013-09-04T20:00:00Z,30.3085,-88.1395,2.429,5.9,1111122 
DISL,ioos:station:DISL:CATA:1,2013-09-04T20:30:00Z,30.3085,-88.1395,2.397,6.62,1111122 
DISL,ioos:station:DISL:CATA:1,2013-09-04T21:00:00Z,30.3085,-88.1395,2.347,6.58,1111122 
DISL,ioos:station:DISL:CATA:1,2013-09-04T21:30:00Z,30.3085,-88.1395,2.325,6.9,1111122 
DISL,ioos:station:DISL:CATA:1,2013-09-04T22:00:00Z,30.3085,-88.1395,2.298,7.11,1111122 
DISL,ioos:station:DISL:CATA:1,2013-09-04T22:30:00Z,30.3085,-88.1395,2.287,7.29,1111122 
DISL,ioos:station:DISL:CATA:1,2013-09-04T23:00:00Z,30.3085,-88.1395,2.286,7.53,1111122 
DISL,ioos:station:DISL:CATA:1,2013-09-04T23:30:00Z,30.3085,-88.1395,2.277,7.68,1111122 
DISL,ioos:station:DISL:CATA:1,2013-09-05T00:00:00Z,30.3085,-88.1395,2.28,7.46,1111122 
DISL,ioos:station:DISL:CATA:1,2013-09-05T00:30:00Z,30.3085,-88.1395,2.295,7.3,1111122 
DISL,ioos:station:DISL:CATA:1,2013-09-05T01:00:00Z,30.3085,-88.1395,2.313,6.87,1111122 
DISL,ioos:station:DISL:CATA:1,2013-09-05T01:30:00Z,30.3085,-88.1395,2.326,6.9,1111122 
DISL,ioos:station:DISL:CATA:1,2013-09-05T02:00:00Z,30.3085,-88.1395,2.312,6.76,1111122 
DISL,ioos:station:DISL:CATA:1,2013-09-05T02:30:00Z,30.3085,-88.1395,2.316,6.72,1111122 
DISL,ioos:station:DISL:CATA:1,2013-09-05T03:00:00Z,30.3085,-88.1395,2.305,6.72,1111122 
DISL,ioos:station:DISL:CATA:1,2013-09-05T03:30:00Z,30.3085,-88.1395,2.301,6.77,1111122 
DISL,ioos:station:DISL:CATA:1,2013-09-05T04:00:00Z,30.3085,-88.1395,2.294,6.65,1111122 
DISL,ioos:station:DISL:CATA:1,2013-09-05T04:30:00Z,30.3085,-88.1395,2.321,6.49,1111122 
DISL,ioos:station:DISL:CATA:1,2013-09-05T05:00:00Z,30.3085,-88.1395,2.338,6.44,1111122 
DISL,ioos:station:DISL:CATA:1,2013-09-05T05:30:00Z,30.3085,-88.1395,2.319,6.28,1111122 
DISL,ioos:station:DISL:CATA:1,2013-09-05T06:00:00Z,30.3085,-88.1395,2.342,6.18,1111122 
DISL,ioos:station:DISL:CATA:1,2013-09-05T06:30:00Z,30.3085,-88.1395,2.349,6.36,1111122 
DISL,ioos:station:DISL:CATA:1,2013-09-05T07:00:00Z,30.3085,-88.1395,2.352,6.29,1111122 
DISL,ioos:station:DISL:CATA:1,2013-09-05T07:30:00Z,30.3085,-88.1395,2.348,6.17,1111122 
DISL,ioos:station:DISL:CATA:1,2013-09-05T08:00:00Z,30.3085,-88.1395,2.341,4.34,1111122 
DISL,ioos:station:DISL:CATA:1,2013-09-05T08:30:00Z,30.3085,-88.1395,2.357,5.64,1111122 
DISL,ioos:station:DISL:CATA:1,2013-09-05T09:00:00Z,30.3085,-88.1395,2.346,5.11,1111122 
DISL,ioos:station:DISL:CATA:1,2013-09-05T09:30:00Z,30.3085,-88.1395,2.353,4.11,1111122 
DISL,ioos:station:DISL:CATA:1,2013-09-05T10:00:00Z,30.3085,-88.1395,2.342,5.26,1111122 
DISL,ioos:station:DISL:CATA:1,2013-09-05T10:30:00Z,30.3085,-88.1395,2.342,5.12,1111122 
DISL,ioos:station:DISL:CATA:1,2013-09-05T11:00:00Z,30.3085,-88.1395,2.355,3.67,1111122 
DISL,ioos:station:DISL:CATA:1,2013-09-05T11:30:00Z,30.3085,-88.1395,2.362,5.16,1111122 
DISL,ioos:station:DISL:CATA:1,2013-09-05T12:00:00Z,30.3085,-88.1395,2.365,4.74,1111122 
DISL,ioos:station:DISL:CATA:1,2013-09-05T12:30:00Z,30.3085,-88.1395,2.382,4.28,1111122 
DISL,ioos:station:DISL:CATA:1,2013-09-05T13:00:00Z,30.3085,-88.1395,2.404,4.38,1111122 
DISL,ioos:station:DISL:CATA:1,2013-09-05T13:30:00Z,30.3085,-88.1395,2.431,4.04,1111122 
DISL,ioos:station:DISL:CATA:1,2013-09-05T14:00:00Z,30.3085,-88.1395,2.448,4.61,1111122 
DISL,ioos:station:DISL:CATA:1,2013-09-05T14:30:00Z,30.3085,-88.1395,2.469,5.37,1111122 
DISL,ioos:station:DISL:CATA:1,2013-09-05T15:00:00Z,30.3085,-88.1395,2.473,3.09,1111122 
DISL,ioos:station:DISL:CATA:1,2013-09-05T15:30:00Z,30.3085,-88.1395,2.49,2.97,1111122 
DISL,ioos:station:DISL:CATA:1,2013-09-05T16:00:00Z,30.3085,-88.1395,2.501,2.96,1111122 
DISL,ioos:station:DISL:CATA:1,2013-09-05T16:30:00Z,30.3085,-88.1395,2.51,3.32,1111122 
DISL,ioos:station:DISL:CATA:1,2013-09-05T17:00:00Z,30.3085,-88.1395,2.518,3.47,1111122 
DISL,ioos:station:DISL:CATA:1,2013-09-05T17:30:00Z,30.3085,-88.1395,2.522,3.52,1111122 
DISL,ioos:station:DISL:CATA:1,2013-09-05T18:00:00Z,30.3085,-88.1395,2.523,3.67,1111122 
DISL,ioos:station:DISL:CATA:1,2013-09-05T18:30:00Z,30.3085,-88.1395,2.517,2.88,1111122 
DISL,ioos:station:DISL:CATA:1,2013-09-05T19:00:00Z,30.3085,-88.1395,2.502,2.25,1111122 
DISL,ioos:station:DISL:CATA:1,2013-09-05T19:30:00Z,30.3085,-88.1395,2.487,2.03,1111122 
DISL,ioos:station:DISL:CATA:1,2013-09-05T20:00:00Z,30.3085,-88.1395,2.465,4.04,1111122 
DISL,ioos:station:DISL:CATA:1,2013-09-05T20:30:00Z,30.3085,-88.1395,2.443,4.69,1111122 
DISL,ioos:station:DISL:CATA:1,2013-09-05T21:00:00Z,30.3085,-88.1395,2.434,5.45,1111122 
DISL,ioos:station:DISL:CATA:1,2013-09-05T21:30:00Z,30.3085,-88.1395,2.42,6.07,1111122 
DISL,ioos:station:DISL:CATA:1,2013-09-05T22:00:00Z,30.3085,-88.1395,2.402,6.87,1111122 
DISL,ioos:station:DISL:CATA:1,2013-09-05T22:30:00Z,30.3085,-88.1395,2.377,7.19,1111122 
DISL,ioos:station:DISL:CATA:1,2013-09-05T23:00:00Z,30.3085,-88.1395,2.368,7.41,1111122 
DISL,ioos:station:DISL:CATA:1,2013-09-05T23:30:00Z,30.3085,-88.1395,2.38,7.38,1111122 
DISL,ioos:station:DISL:CATA:1,2013-09-06T00:00:00Z,30.3085,-88.1395,2.382,7.45,1111122 
DISL,ioos:station:DISL:CATA:1,2013-09-06T00:30:00Z,30.3085,-88.1395,2.388,7.4,1111122 
DISL,ioos:station:DISL:CATA:1,2013-09-06T01:00:00Z,30.3085,-88.1395,2.4,7.43,1111122 
DISL,ioos:station:DISL:CATA:1,2013-09-06T01:30:00Z,30.3085,-88.1395,2.406,7.32,1111122 
DISL,ioos:station:DISL:CATA:1,2013-09-06T02:00:00Z,30.3085,-88.1395,2.419,6.88,1111122 
DISL,ioos:station:DISL:CATA:1,2013-09-06T02:30:00Z,30.3085,-88.1395,2.43,6.11,1111122 
DISL,ioos:station:DISL:CATA:1,2013-09-06T03:00:00Z,30.3085,-88.1395,2.421,6.36,1111122 
DISL,ioos:station:DISL:CATA:1,2013-09-06T03:30:00Z,30.3085,-88.1395,2.42,6.39,1111122 
DISL,ioos:station:DISL:CATA:1,2013-09-06T04:00:00Z,30.3085,-88.1395,2.423,6.69,1111122 
DISL,ioos:station:DISL:CATA:1,2013-09-06T04:30:00Z,30.3085,-88.1395,2.417,6.73,1111122 
DISL,ioos:station:DISL:CATA:1,2013-09-06T05:00:00Z,30.3085,-88.1395,2.416,6.66,1111122 
DISL,ioos:station:DISL:CATA:1,2013-09-06T05:30:00Z,30.3085,-88.1395,2.409,6.41,1111122 
DISL,ioos:station:DISL:CATA:1,2013-09-06T06:00:00Z,30.3085,-88.1395,2.418,5.97,1111122 
DISL,ioos:station:DISL:CATA:1,2013-09-06T06:30:00Z,30.3085,-88.1395,2.398,5.4,1111122 
DISL,ioos:station:DISL:CATA:1,2013-09-06T07:00:00Z,30.3085,-88.1395,2.396,5.74,1111122 
DISL,ioos:station:DISL:CATA:1,2013-09-06T07:30:00Z,30.3085,-88.1395,2.39,5.46,1111122 
DISL,ioos:station:DISL:CATA:1,2013-09-06T08:00:00Z,30.3085,-88.1395,2.389,5.52,1111122 
DISL,ioos:station:DISL:CATA:1,2013-09-06T08:30:00Z,30.3085,-88.1395,2.388,5.79,1111122 
DISL,ioos:station:DISL:CATA:1,2013-09-06T09:00:00Z,30.3085,-88.1395,2.373,5.9,1111122 
DISL,ioos:station:DISL:CATA:1,2013-09-06T09:30:00Z,30.3085,-88.1395,2.364,5.96,1111122 
DISL,ioos:station:DISL:CATA:1,2013-09-06T10:00:00Z,30.3085,-88.1395,2.346,5.97,1111122 
DISL,ioos:station:DISL:CATA:1,2013-09-06T10:30:00Z,30.3085,-88.1395,2.33,5.85,1111122 
DISL,ioos:station:DISL:CATA:1,2013-09-06T11:00:00Z,30.3085,-88.1395,2.306,5.92,1111122 
DISL,ioos:station:DISL:CATA:1,2013-09-06T11:30:00Z,30.3085,-88.1395,2.299,6.11,1111122 
DISL,ioos:station:DISL:CATA:1,2013-09-06T12:00:00Z,30.3085,-88.1395,2.313,6.12,1111122 
DISL,ioos:station:DISL:CATA:1,2013-09-06T12:30:00Z,30.3085,-88.1395,2.32,6.07,1111122 
DISL,ioos:station:DISL:CATA:1,2013-09-06T13:00:00Z,30.3085,-88.1395,2.343,6.16,1111122 
DISL,ioos:station:DISL:CATA:1,2013-09-06T13:30:00Z,30.3085,-88.1395,2.342,6.19,1111122 
DISL,ioos:station:DISL:CATA:1,2013-09-06T14:00:00Z,30.3085,-88.1395,2.358,6.26,1111122 
DISL,ioos:station:DISL:CATA:1,2013-09-06T14:30:00Z,30.3085,-88.1395,2.365,6.23,1111122 
DISL,ioos:station:DISL:CATA:1,2013-09-06T15:00:00Z,30.3085,-88.1395,2.382,6.06,1111122 
DISL,ioos:station:DISL:CATA:1,2013-09-06T15:30:00Z,30.3085,-88.1395,2.393,4.81,1111122 